Terug naar catalogus

STARLINK-6330

ActiefCommunicatieVLEO
NORAD 57239·PAYLOAD·🇺🇸 United States

Gelanceerd Jul 7, 2023 vanaf Vandenberg Space Force Base

Loading…

Volgende Passages (komende 24 uur)

TLE

VersSource: CelesTrak SupGP

Epoch: Sep 14, 2026, 21:10 UTC

1 57239C 23094X   26257.88243056  .00051043  00000+0  18486-2 0  2570
2 57239  43.0020  41.9851 0001469 269.2744  74.6627 15.27557099    12

Volg STARLINK-6330 in realtime met AllMySat

Download on the App Store